Weather History for K36U - August, 2013

Change the Weather History Date:

Saturday, August 3, 2013

  Actual Average (KPVU) Record (KPVU)
Temperature  
Mean Temperature 68 °F -  
Max Temperature 89 °F 88 °F 100 °F (1986)
Min Temperature 48 °F 58 °F 54 °F (1985)
Cooling Degree Days 4    
Growing Degree Days 18 (Base 50)    
Moisture  
Dew Point 36 °F    
Average Humidity 37    
Maximum Humidity 76    
Minimum Humidity 10    
Precipitation  
Precipitation 0.00 in - - ()
Sea Level Pressure  
Sea Level Pressure 30.14 in    
Wind  
Wind Speed 4 mph (SW)    
Max Wind Speed 20 mph    
Max Gust Speed 30 mph    
Visibility 10 miles    
Events      
Averages and records for this station are not official NWS values.
T = Trace of Precipitation, MM = Missing Value Source: NWS Daily Summary

Daily Weather History Graph

Daily Weather History Graph

Search for Another Location

Airport or City:

Trip Planner

Search our weather history database for the weather conditions in past years. The results will help you decide how hot, cold, wet, or windy it might be!

Date:

Astronomy

Aug. 03, 2013 Rise Set
Actual Time 6:25 AM MDT 8:37 PM MDT
Civil Twilight 5:54 AM MDT 9:08 PM MDT
Nautical Twilight 5:17 AM MDT 9:45 PM MDT
Astronomical Twilight 4:36 AM MDT 10:26 PM MDT
Moon 3:37 AM MDT (8/3) 6:23 PM MDT (8/3)
Length of Visible Light 15h 13m
Length of Day
14h 12m
Waning Crescent, 9% of the Moon is Illuminated
Aug 3
Waning Crescent
Aug 6
New
Aug 14
First Quarter
Aug 20
Full
Aug 28
Last Quarter

Hourly Weather History & Observations

Time (MDT) Temp. Dew Point Humidity Pressure Visibility Wind Dir Wind Speed Gust Speed Precip Events Conditions
12:15 AM 59.0 °F 41.0 °F 51% 30.09 in 10.0 mi Calm Calm - N/A   Clear
12:35 AM 55.4 °F 42.8 °F 63% 30.10 in 10.0 mi Calm Calm - N/A   Clear
12:55 AM 55.4 °F 41.0 °F 58% 30.11 in 10.0 mi Calm Calm - N/A   Clear
1:15 AM 51.8 °F 42.8 °F 71% 30.10 in 10.0 mi East 3.5 mph - N/A   Scattered Clouds
1:35 AM 53.6 °F 42.8 °F 67% 30.10 in 10.0 mi Calm Calm - N/A   Scattered Clouds
1:55 AM 53.6 °F 42.8 °F 67% 30.11 in 10.0 mi Calm Calm - N/A   Clear
2:15 AM 53.6 °F 42.8 °F 67% 30.11 in 10.0 mi Calm Calm - N/A   Clear
2:35 AM 55.4 °F 41.0 °F 58% 30.11 in 10.0 mi Calm Calm - N/A   Scattered Clouds
2:55 AM 51.8 °F 42.8 °F 71% 30.11 in 10.0 mi ESE 3.5 mph - N/A   Scattered Clouds
3:15 AM 51.8 °F 42.8 °F 71% 30.11 in 10.0 mi Calm Calm - N/A   Clear
3:35 AM 51.8 °F 41.0 °F 67% 30.11 in 10.0 mi Calm Calm - N/A   Clear
3:55 AM 50.0 °F 42.8 °F 76% 30.11 in 10.0 mi Calm Calm - N/A   Clear
4:15 AM 53.6 °F 41.0 °F 62% 30.11 in 10.0 mi Calm Calm - N/A   Clear
4:35 AM 50.0 °F 41.0 °F 71% 30.12 in 10.0 mi SE 3.5 mph - N/A   Clear
4:55 AM 51.8 °F 41.0 °F 67% 30.12 in 10.0 mi Calm Calm - N/A   Clear
5:15 AM 50.0 °F 41.0 °F 71% 30.13 in 10.0 mi Calm Calm - N/A   Clear
5:35 AM 50.0 °F 41.0 °F 71% 30.14 in 10.0 mi Calm Calm - N/A   Clear
5:55 AM 50.0 °F 41.0 °F 71% 30.14 in 10.0 mi SSE 3.5 mph - N/A   Clear
6:15 AM 50.0 °F 39.2 °F 66% 30.15 in 10.0 mi Calm Calm - N/A   Clear
6:35 AM 48.2 °F 41.0 °F 76% 30.16 in 10.0 mi Calm Calm - N/A   Clear
6:55 AM 50.0 °F 41.0 °F 71% 30.16 in 10.0 mi Calm Calm - N/A   Clear
7:15 AM 51.8 °F 41.0 °F 67% 30.17 in 7.0 mi Calm Calm - N/A   Clear
7:35 AM 55.4 °F 41.0 °F 58% 30.18 in 10.0 mi Calm Calm - N/A   Clear
7:55 AM 59.0 °F 42.8 °F 55% 30.18 in 10.0 mi Calm Calm - N/A   Clear
8:15 AM 62.6 °F 41.0 °F 45% 30.19 in 10.0 mi Calm Calm - N/A   Clear
8:35 AM 62.6 °F 41.0 °F 45% 30.19 in 10.0 mi WNW 3.5 mph - N/A   Clear
8:55 AM 66.2 °F 39.2 °F 37% 30.19 in 10.0 mi Calm Calm - N/A   Clear
9:15 AM 68.0 °F 39.2 °F 35% 30.19 in 10.0 mi Calm Calm - N/A   Clear
9:35 AM 71.6 °F 37.4 °F 29% 30.19 in 10.0 mi Calm Calm - N/A   Clear
9:55 AM 73.4 °F 37.4 °F 27% 30.19 in 10.0 mi Calm Calm - N/A   Clear
10:15 AM 78.8 °F 37.4 °F 23% 30.19 in 10.0 mi West 4.6 mph - N/A   Clear
10:35 AM 82.4 °F 26.6 °F 13% 30.19 in 10.0 mi WSW 9.2 mph - N/A   Clear
10:55 AM 82.4 °F 28.4 °F 14% 30.19 in 10.0 mi WSW 11.5 mph 17.3 mph N/A   Clear
11:15 AM 82.4 °F 26.6 °F 13% 30.18 in 10.0 mi WSW 11.5 mph 18.4 mph N/A   Clear
11:35 AM 84.2 °F 26.6 °F 12% 30.19 in 10.0 mi WSW 15.0 mph 19.6 mph N/A   Clear
11:55 AM 84.2 °F 26.6 °F 12% 30.18 in 10.0 mi WSW 15.0 mph - N/A   Clear
12:15 PM 86.0 °F 28.4 °F 12% 30.18 in 10.0 mi WSW 16.1 mph 24.2 mph N/A   Clear
12:35 PM 86.0 °F 26.6 °F 12% 30.17 in 10.0 mi WSW 15.0 mph 18.4 mph N/A   Clear
12:55 PM 86.0 °F 30.2 °F 13% 30.17 in 10.0 mi WSW 17.3 mph 20.7 mph N/A   Clear
1:15 PM 87.8 °F 28.4 °F 12% 30.16 in 10.0 mi WSW 15.0 mph 23.0 mph N/A   Clear
1:35 PM 87.8 °F 28.4 °F 12% 30.16 in 10.0 mi WSW 15.0 mph 21.9 mph N/A   Clear
1:55 PM 89.6 °F 30.2 °F 12% 30.16 in 10.0 mi WSW 16.1 mph 25.3 mph N/A   Clear
2:15 PM 89.6 °F 30.2 °F 12% 30.15 in 10.0 mi West 17.3 mph 21.9 mph N/A   Clear
2:35 PM 89.6 °F 30.2 °F 12% 30.15 in 10.0 mi WSW 16.1 mph 24.2 mph N/A   Clear
2:55 PM 89.6 °F 30.2 °F 12% 30.15 in 10.0 mi WSW 18.4 mph 24.2 mph N/A   Clear
3:15 PM 89.6 °F 26.6 °F 10% 30.14 in 10.0 mi West 17.3 mph 29.9 mph N/A   Clear
3:35 PM 89.6 °F 28.4 °F 11% 30.14 in 10.0 mi SW 19.6 mph 23.0 mph N/A   Clear
3:55 PM 89.6 °F 26.6 °F 10% 30.13 in 10.0 mi WSW 17.3 mph 21.9 mph N/A   Clear
4:15 PM 89.6 °F 28.4 °F 11% 30.13 in 10.0 mi WSW 17.3 mph 24.2 mph N/A   Clear
4:35 PM 89.6 °F 30.2 °F 12% 30.13 in 10.0 mi SW 15.0 mph 23.0 mph N/A   Clear
4:55 PM 89.6 °F 32.0 °F 13% 30.12 in 10.0 mi WSW 15.0 mph 25.3 mph N/A   Clear
5:15 PM 89.6 °F 30.2 °F 12% 30.12 in 10.0 mi WSW 13.8 mph 26.5 mph N/A   Clear
5:35 PM 87.8 °F 32.0 °F 14% 30.12 in 10.0 mi SSW 10.4 mph 21.9 mph N/A   Clear
5:55 PM 87.8 °F 32.0 °F 14% 30.11 in 10.0 mi SW 11.5 mph 24.2 mph N/A   Clear
6:15 PM 87.8 °F 32.0 °F 14% 30.11 in 10.0 mi WSW 11.5 mph 23.0 mph N/A   Clear
6:35 PM 87.8 °F 32.0 °F 14% 30.10 in 10.0 mi WSW 17.3 mph 23.0 mph N/A   Clear
6:55 PM 87.8 °F 32.0 °F 14% 30.10 in 10.0 mi SW 15.0 mph 19.6 mph N/A   Clear
7:15 PM 86.0 °F 32.0 °F 14% 30.10 in 10.0 mi WSW 11.5 mph - N/A   Clear
7:35 PM 86.0 °F 32.0 °F 14% 30.10 in 10.0 mi WSW 12.7 mph 17.3 mph N/A   Clear
7:55 PM 84.2 °F 30.2 °F 14% 30.09 in 10.0 mi SSW 6.9 mph - N/A   Clear
8:15 PM 82.4 °F 32.0 °F 16% 30.10 in 10.0 mi SW 5.8 mph - N/A   Clear
8:35 PM 77.0 °F 37.4 °F 24% 30.10 in 10.0 mi SSE 3.5 mph - N/A   Clear
8:55 PM 73.4 °F 33.8 °F 23% 30.10 in 10.0 mi Calm Calm - N/A   Clear
9:15 PM 73.4 °F 35.6 °F 25% 30.11 in 10.0 mi ENE 3.5 mph - N/A   Clear
9:35 PM 71.6 °F 35.6 °F 27% 30.11 in 10.0 mi Calm Calm - N/A   Clear
9:55 PM 66.2 °F 37.4 °F 35% 30.12 in 10.0 mi Calm Calm - N/A   Clear
10:15 PM 64.4 °F 37.4 °F 37% 30.13 in 10.0 mi Calm Calm - N/A   Clear
10:35 PM 62.6 °F 41.0 °F 45% 30.14 in 10.0 mi Calm Calm - N/A   Clear
10:55 PM 60.8 °F 42.8 °F 52% 30.14 in 10.0 mi Calm Calm - N/A   Clear
11:15 PM 59.0 °F 42.8 °F 55% 30.15 in 10.0 mi Calm Calm - N/A   Clear
11:35 PM 55.4 °F 41.0 °F 58% 30.15 in 10.0 mi ESE 4.6 mph - N/A   Clear
11:55 PM 55.4 °F 41.0 °F 58% 30.15 in 10.0 mi ENE 3.5 mph - N/A   Clear